Regional Weather Roundup
Issued by NWS

Home | Current Version | Previous Version | Graphics & Text | Print | Product List | Glossary On
Versions: 1 2 3 4 5 6 7 8 9 10 11 12 13 14 15 16 17 18 19 20 21 22 23 24 25 26 27 28 29 30 31 32 33 34 35 36 37 38 39 40 41 42 43 44 45 46 47 48 49 50
581
ASUS43 KOAX 231910
RWRNE

WEATHER ROUNDUP FOR NEBRASKA
NATIONAL WEATHER SERVICE OMAHA NE
200 PM CDT TUE MAY 23 2017

NOTES: SATELLITE DATA IS BEING USED TO AUGMENT CLOUD COVER ABOVE
       12000 FEET.
       "FAIR" INDICATES FEW OR NO CLOUDS BELOW 12,000 FEET WITH NO
       SIGNIFICANT WEATHER AND/OR OBSTRUCTIONS TO VISIBILITY.

  * THESE STATIONS DO NOT REPORT WEATHER SUCH AS RAIN...SNOW OR FOG.

NEZ001>004-019>022-054>056-232000-
NEBRASKA PANHANDLE

CITY           SKY/WX    TMP DP  RH WIND       PRES   REMARKS
SCOTTSBLUFF    CLOUDY    59  32  36 N18G24    30.11F
ALLIANCE       MOSUNNY   59  36  42 NW20G29   30.08F
CHADRON        CLOUDY    58  39  49 N12G21    30.09F
GORDON         CLOUDY    54  36  51 N17G26    30.08S
KIMBALL        CLOUDY    55  33  43 N21G26    30.14F
SIDNEY         CLOUDY    55  37  50 N17G28    30.11F
$$

NEZ057>060-069>072-079>082-232000-
SOUTHWEST NEBRASKA

CITY           SKY/WX    TMP DP  RH WIND       PRES   REMARKS
NORTH PLATTE   CLOUDY    57  35  43 N24G35    30.02F
IMPERIAL       MOSUNNY   61  37  41 N22G33    30.05F
LEXINGTON      CLOUDY    57  41  55 N17G23    29.99F
MCCOOK         CLOUDY    66  34  30 N32G44    30.00F
OGALLALA       CLOUDY    59  36  41 N17G25    30.06F
$$

NEZ005>010-023>029-035>040-094-232000-
NORTH CENTRAL NEBRASKA

CITY           SKY/WX    TMP DP  RH WIND       PRES   REMARKS
VALENTINE      CLOUDY    56  34  43 N24G35    30.01F
AINSWORTH      CLOUDY    50  42  71 N18G24    30.01F
BROKEN BOW     CLOUDY    52  40  63 N20G28    29.99F
O`NEILL        CLOUDY    52  39  60 N22G28    29.97S
ORD            CLOUDY    51  38  60 N20G29    29.96F
THEDFORD       CLOUDY    56  35  44 N25G36    30.02F
$$

NEZ041-046>049-061>064-073>077-083>087-232000-
SOUTH CENTRAL NEBRASKA

CITY           SKY/WX    TMP DP  RH WIND       PRES   REMARKS
GRAND ISLAND   CLOUDY    53  42  66 N23G30    29.95F
AURORA         CLOUDY    56  40  55 N21G29    29.93F
HASTINGS       CLOUDY    57  43  59 NW22G30   29.96S
HEBRON         CLOUDY    59  43  55 NW18G31   29.90S
HOLDREGE       CLOUDY    54  37  53 N18G29    29.98F
KEARNEY *      CLOUDY    55  37  50 N23G31    29.98F
YORK           MOSUNNY   59  41  51 NW25G32   29.90F
$$

NEZ011>018-030>034-042>045-232000-
NORTHEAST NEBRASKA

CITY           SKY/WX    TMP DP  RH WIND       PRES   REMARKS
NORFOLK        CLOUDY    53  41  63 NW22      29.89F
ALBION         LGT RAIN  51  45  79 N13G18    29.94R
BLAIR          CLOUDY    56  44  64 NW12      29.85F
FREMONT        CLOUDY    59  44  58 NW22      29.88F
TEKAMAH        CLOUDY    57  46  66 N18       29.86F
WAYNE          LGT RAIN  51  50  97 NW14      29.89S
$$

NEZ050>053-065>068-078-088>093-232000-
SOUTHEAST NEBRASKA

CITY           SKY/WX    TMP DP  RH WIND       PRES   REMARKS
LINCOLN        PTSUNNY   59  44  57 NW9       29.88F
OMAHA EPPLEY   CLOUDY    58  42  55 N17       29.85F
BEATRICE       LGT RAIN  54  49  82 NW10      29.88S
FALLS CITY     CLOUDY    62  46  55 NW16      29.85F
NEBRASKA CITY  CLOUDY    59  40  50 N13       29.86F
PLATTSMOUTH    PTSUNNY   60  42  52 NW13G20   29.85F
$$

NEZ044-045-051>053-067-232000-
OMAHA AREA

CITY           SKY/WX    TMP DP  RH WIND       PRES   REMARKS
OMAHA EPPLEY   CLOUDY    58  42  55 N17       29.85F
BLAIR          CLOUDY    56  44  64 NW12      29.85F
FREMONT        CLOUDY    59  44  58 NW22      29.88F
MILLARD        CLOUDY    57  46  66 NW15G22   29.86S
OFFUTT AFB     CLOUDY    57  43  58 NW18      29.84F
PLATTSMOUTH    PTSUNNY   60  42  52 NW13G20   29.85F
WAHOO          CLOUDY    55  47  73 NW16G22   29.88F
$$




USA.gov is the U.S. government's official web portal to all federal, state and local government web resources and services.